Regional Weather Roundup
Issued by NWS Midland/Odessa, TX

Skip options and go directly to product.
Home | Oldest Version | Next Version | Current Version | All | Text Only | Save Text | Print | Product List | Glossary On

Skip product version selection by date and time.   
606
ASUS44 KMAF 182010
RWRMAF
MIDLAND AREA WEATHER ROUNDUP
NATIONAL WEATHER SERVICE MIDLAND TX
200 PM CST THU DEC 18 2014

...IN SOUTHWEST TEXAS AND SOUTHEAST NEW MEXICO...

CITY           SKY/WX    TMP DP  RH WIND       PRES   REMARKS
ALPINE         CLOUDY    59  31  34 S10       30.15S
ANDREWS        FAIR      61  33  34 W5        30.06F
ARTESIA        MOSUNNY   57  34  41 SE5       30.06F
BIG SPRING     SUNNY     64  32  30 SE5       30.08F
CARLSBAD       MOSUNNY   62  34  35 E3        30.04F
DRYDEN           N/A     61  44  53 SE3       30.05F
FORT STOCKTON  MOSUNNY   63  31  30 N5        30.06F
GUAD PASS      NOT AVBL
HOBBS          SUNNY     57  28  33 CALM      30.07F
MARFA          PTSUNNY   57  27  30 S8        30.12F
MIDLAND AIRPK  MOSUNNY   63  34  33 W6        30.07F
MIDLAND INTL   MOSUNNY   62  35  36 NW6       30.06F
ODESSA         SUNNY     61  33  35 CALM      30.07F
PECOS          SUNNY     65  33  29 W8        30.05F
PRESIDIO       FAIR      60  32  34 NW6       30.06F
SEMINOLE       MOSUNNY   59  28  31 CALM      30.07F
SNYDER         MOSUNNY   58  32  37 CALM      30.08F
WINK           SUNNY     63  31  30 VRB5      30.05F
$$
...OTHER STATIONS IN TEXAS...

CITY           SKY/WX    TMP DP  RH WIND       PRES   REMARKS
ABILENE        SUNNY     65  35  33 N6        30.07F
AMARILLO       MOSUNNY   39  29  67 VRB6      30.08F WCI  35
AUSTIN         CLOUDY    61  55  81 N6        30.05F
BROWNSVILLE    LGT RAIN  73  69  87 S7        29.97F
CORPUS CHRISTI PTSUNNY   78  66  66 S14       29.97F
DALLAS FTW     CLOUDY    49  44  83 NE5       30.10F
DEL RIO        CLOUDY    64  54  69 N5        30.02F HAZE
EL PASO        CLOUDY    53  36  52 SE6       30.08F
HOUSTON INT    PTSUNNY   68  61  78 E3        30.03F
LUBBOCK        PTSUNNY   55  30  38 N9        30.05F
SAN ANGELO     MOSUNNY   66  37  34 W5        30.05F
SAN ANTONIO    CLOUDY    66  59  78 NE6       30.04F
WACO           CLOUDY    52  48  86 N9        30.09F
WICHITA FALLS  NOT AVBL
$$
...OTHER LOCATIONS IN NEW MEXICO...

CITY           SKY/WX    TMP DP  RH WIND       PRES   REMARKS
ALAMAGORDO     CLOUDY    54  30  40 CALM      30.08F
ALBUQUERQUE    PTSUNNY   42  28  57 W3        30.10F
CANNON AFB     NOT AVBL
CLOVIS         MOSUNNY   54  25  32 NW9       30.03F
HOLLOMAN AFB   PTSUNNY   54  32  42 CALM      30.06F
ROSWELL        CLOUDY    56  32  40 MISG      30.05F
RUIDOSO        CLOUDY    41  25  52 CALM      30.10F
SANTA FE       MOSUNNY   40  26  57 NW6       30.07F WCI  36
TRUTH OR CONSE CLOUDY    50  29  44 SW9       30.06F
TUCUMCARI      MOSUNNY   44  32  62 NE7       30.02F
$$

USA.gov is the U.S. government's official web portal to all federal, state and local government web resources and services.